RH
61 60 58 61 61 60 66 72 80 82 83 85 81 76 72 68 65 64 65 66 66 65 69 71 69 70 69 70 71 69 69 68 65 65 66 70 73 73 72 71 69 67 66 63 61 57 53 47 41 40 40 40 42 43 45 48 53 55 58 61 61 57 55 54 51 48 47 50 55 58 59 60 59 57 56 54 51 48 48 50 53 57 59 58 57 57 56 55 55 51 48 50 50 51 52 51 49
59 57 57 59 58 60 72 76 79 82 81 80 74 70 68 64 64 65 65 68 72 73 73 71 68 68 69 68 68 67 65 64 64 65 65 64 66 71 74 72 69 67 65 61 60 60 57 53 47 44 43 42 43 44 44 44 46 50 57 62 59 56 54 52 51 51 51 52 56 59 62 63 63 61 60 58 55 52 51 51 54 58 60 60 59 58 59 58 58 54 51 54 53 53 53 52 51
58 58 60 61 65 69 76 77 76 77 73 69 63 60 61 61 64 67 68 68 73 78 75 69 66 65 65 67 66 65 65 64 64 69 70 66 65 66 69 71 69 66 62 59 58 62 62 58 55 51 49 47 47 46 46 45 45 50 58 61 57 55 51 47 46 49 52 54 56 59 63 66 66 66 64 62 59 57 55 54 56 58 60 61 62 62 63 63 62 57 53 58 59 57 56 55 53
61 59 60 65 78 79 74 77 78 73 69 64 56 55 59 60 65 69 67 66 70 75 74 69 66 62 63 66 66 65 65 66 67 71 74 73 69 63 64 65 64 62 58 57 59 65 66 62 59 57 55 54 53 50 48 47 47 51 58 60 56 52 46 42 42 46 50 54 58 58 61 65 67 69 67 64 62 61 58 57 59 59 60 62 65 68 69 67 67 62 54 59 62 59 59 58 55
62 62 65 68 80 84 77 78 77 72 68 63 54 56 64 61 61 65 65 67 71 70 69 69 66 62 61 60 63 63 63 65 66 69 71 72 68 62 60 58 57 56 56 60 64 68 70 67 63 61 61 60 59 55 52 51 51 55 59 57 51 47 45 45 44 45 48 52 59 61 61 63 65 68 69 68 66 63 61 61 61 62 62 61 64 72 76 74 75 68 57 61 64 61 61 59 58
69 71 73 71 79 83 80 77 71 68 65 60 52 54 64 62 60 62 64 67 69 66 63 65 64 61 59 57 60 63 63 63 65 69 67 63 61 57 56 54 53 53 56 62 66 70 72 71 70 68 69 68 66 61 57 57 58 60 59 52 47 48 48 47 44 45 48 51 57 60 61 63 65 66 68 70 69 67 65 64 63 64 63 63 66 75 82 80 78 72 64 64 64 61 62 61 61
72 77 81 76 81 81 79 78 70 65 61 55 48 51 61 62 63 62 62 64 65 64 61 62 62 60 57 57 60 60 61 62 61 61 56 52 53 53 53 53 53 52 56 62 66 70 73 73 73 73 74 73 71 69 66 65 62 58 54 50 51 53 52 48 44 44 46 49 53 55 57 61 65 67 67 68 70 71 69 66 64 63 63 68 70 77 85 80 71 72 72 66 62 62 63 63 63
68 77 90 82 83 82 76 77 72 67 62 56 52 58 65 65 66 65 63 64 64 62 60 61 61 61 59 57 57 57 59 59 58 54 50 49 53 59 58 54 53 53 57 63 67 70 72 73 73 74 74 71 69 68 67 64 59 55 54 56 57 57 56 52 47 47 49 51 53 54 56 59 63 66 65 67 71 73 70 68 65 64 68 75 73 76 84 80 70 75 78 70 63 63 65 65 64
72 80 93 86 84 82 74 73 72 67 62 59 59 64 67 66 68 68 67 66 64 62 60 60 61 66 66 60 55 58 62 61 60 54 49 46 49 60 65 62 58 57 58 63 67 70 71 72 73 73 74 73 69 67 67 65 63 61 62 61 61 61 60 55 51 51 54 56 57 57 58 60 62 63 61 64 69 70 70 69 67 69 75 77 77 81 82 76 76 82 81 73 66 65 68 67 67
82 84 89 89 84 79 73 69 68 65 60 56 57 63 65 64 65 66 65 64 63 61 59 58 62 67 68 64 55 54 57 57 55 52 49 46 46 53 64 68 66 64 64 66 69 71 71 72 73 72 73 76 74 71 69 66 65 65 66 66 65 63 61 60 58 59 62 63 62 61 61 61 62 62 59 61 65 66 66 68 69 70 76 81 84 88 85 77 79 85 84 76 69 68 70 68 68
92 92 88 91 88 80 74 69 65 61 56 51 51 56 58 58 58 58 55 57 61 58 57 57 60 62 61 59 55 54 53 53 53 52 49 45 44 49 57 65 69 71 70 69 69 70 70 71 73 72 71 73 74 73 70 65 64 66 66 67 67 65 63 64 65 66 67 67 66 65 64 64 63 62 59 59 62 62 62 66 70 70 74 84 88 84 84 83 82 84 86 81 72 70 71 69 69
94 97 94 93 91 83 75 69 63 58 55 53 51 50 52 53 52 51 49 52 57 56 55 55 55 57 59 57 56 56 55 56 56 55 52 44 43 46 51 57 63 69 72 69 65 65 66 67 69 68 64 69 72 72 71 69 68 68 67 68 68 68 67 66 66 66 66 65 65 65 65 66 65 64 61 59 57 56 58 62 70 80 81 82 88 87 87 88 87 89 89 84 75 72 71 69 69
94 95 98 98 93 86 79 72 68 64 61 58 55 53 53 52 49 48 50 52 53 55 54 53 52 52 56 58 57 55 54 57 57 56 54 47 44 46 50 53 56 61 68 69 62 59 59 61 64 63 61 64 69 72 73 71 67 65 66 68 69 70 70 68 67 66 66 65 64 64 64 64 64 63 63 61 58 53 54 59 71 85 85 84 87 89 92 92 91 93 92 88 78 72 70 69 70
96 94 98 98 94 91 85 79 74 69 65 61 57 55 56 55 52 52 52 51 52 55 54 55 56 55 57 58 57 53 50 52 51 53 54 49 45 48 53 55 55 55 60 65 62 56 52 54 56 58 59 59 62 68 70 66 60 59 62 65 66 66 66 65 66 67 68 68 67 65 64 65 64 63 63 62 61 57 53 59 71 81 84 86 86 84 92 96 97 98 95 90 78 73 71 70 71
94 95 99 98 97 95 89 84 78 72 68 62 59 57 59 58 56 55 54 53 54 54 53 56 58 58 60 58 54 52 54 57 56 56 57 51 44 46 53 60 61 57 58 60 56 49 44 45 49 54 56 56 59 63 66 64 59 59 60 62 62 61 60 60 62 64 67 68 69 68 68 68 68 67 66 64 63 61 56 59 73 88 91 87 84 85 93 98 99 97 95 89 79 75 72 70 71
91 93 99 99 98 96 91 85 79 75 70 64 62 60 62 62 60 58 55 53 55 54 53 57 58 58 60 57 54 55 57 62 60 56 53 47 40 40 47 60 68 64 63 60 48 43 42 41 45 52 54 55 56 58 60 61 61 58 55 56 58 58 59 58 58 60 61 62 64 66 67 68 68 67 68 67 66 64 60 62 73 88 95 90 86 91 94 98 99 96 95 90 80 75 73 70 71
93 94 96 97 98 97 91 84 78 75 71 66 65 64 64 62 61 60 55 52 53 54 55 57 58 59 60 60 58 55 54 55 53 50 47 44 41 39 39 50 67 69 65 61 50 45 45 44 44 48 52 54 56 58 57 58 62 59 52 52 54 56 57 58 59 60 60 60 60 61 63 65 68 68 68 68 67 66 63 69 79 84 91 91 91 96 96 96 98 97 99 95 85 77 73 69 70
96 95 94 97 98 94 87 81 77 75 73 69 68 69 68 64 62 59 54 53 52 54 55 55 55 57 60 61 58 55 55 52 49 48 46 45 44 42 37 39 54 66 65 58 51 49 50 51 51 47 47 48 49 52 54 55 59 59 53 51 56 60 60 62 64 66 68 68 66 66 66 66 71 72 71 72 70 68 67 71 81 85 90 92 94 98 97 95 98 100 101 98 89 80 73 67 67
95 93 94 97 95 89 84 82 80 77 76 75 73 71 70 68 64 59 56 55 55 56 56 56 56 56 57 58 58 58 60 58 56 56 51 46 46 45 42 36 37 50 60 56 47 46 48 51 54 54 52 51 51 51 48 46 51 56 52 47 54 59 62 67 71 75 76 77 78 77 74 73 79 78 76 81 78 73 71 73 83 90 93 96 96 95 94 94 98 101 100 98 91 81 74 70 70
92 94 95 89 85 83 82 83 81 78 81 83 80 74 73 71 67 65 63 60 59 58 57 59 61 59 57 57 59 62 64 64 66 66 58 50 48 45 42 40 35 34 44 54 52 45 43 44 45 46 49 51 52 51 45 39 42 48 45 42 44 47 52 56 61 66 67 72 77 77 76 78 84 85 83 88 87 79 75 78 89 93 94 95 92 92 96 94 96 100 100 98 94 85 81 80 79
95 96 93 84 84 88 86 86 83 81 85 88 85 80 80 76 72 71 69 66 64 62 60 62 63 63 61 60 61 62 63 65 68 69 63 53 46 39 36 35 35 32 32 44 54 52 43 40 38 36 37 38 39 39 38 36 37 38 36 35 34 37 39 41 46 50 52 56 60 68 76 81 89 92 91 94 92 88 83 82 88 90 89 90 91 95 99 99 98 100 100 99 97 92 89 90 88
97 95 91 89 93 95 90 87 86 84 84 86 88 87 86 84 79 76 75 71 68 65 64 66 67 68 67 66 66 65 64 66 66 64 57 46 35 34 39 35 32 33 31 32 45 54 50 42 38 37 36 36 37 37 38 38 38 37 36 35 33 33 32 33 36 38 43 46 51 68 77 81 92 94 93 97 96 94 91 88 90 91 89 91 94 96 98 100 100 100 101 100 100 98 97 96 95
97 94 89 92 96 98 95 87 87 88 87 87 89 90 88 88 85 81 80 75 74 73 70 71 71 72 73 72 70 69 65 61 60 59 58 54 42 38 45 44 38 35 33 31 35 47 55 53 46 43 41 40 41 41 43 42 42 41 40 38 37 35 34 32 31 31 34 36 44 60 67 76 91 95 94 99 99 97 97 96 96 95 93 94 96 97 97 98 99 100 101 100 100 100 99 99 98
98 96 91 93 92 93 93 87 85 88 90 88 87 86 84 86 86 84 80 75 77 76 70 70 70 69 73 72 71 71 64 57 55 59 63 65 60 53 49 49 48 41 35 34 35 40 49 58 60 56 52 49 46 44 45 46 45 45 44 42 42 40 39 38 36 34 31 30 33 41 61 81 88 94 97 99 99 96 97 99 99 96 95 94 93 95 97 97 98 99 100 100 100 100 99 99 97
98 99 93 91 90 88 90 89 85 82 83 82 80 78 77 79 80 79 75 69 71 71 66 64 63 63 65 64 67 71 68 60 57 60 62 61 60 57 52 50 53 50 40 35 37 43 47 54 65 70 70 65 58 52 48 47 47 47 47 45 45 44 43 42 41 39 36 34 30 29 53 76 79 86 93 94 95 94 95 97 96 95 92 88 85 89 94 97 99 100 100 100 99 99 98 96 94
92 95 91 90 90 87 88 90 86 79 76 75 73 70 67 67 69 66 59 57 55 52 48 45 48 52 54 54 55 63 68 67 64 62 59 57 55 52 54 52 51 53 51 44 38 41 48 53 59 67 75 75 66 58 52 47 47 47 48 47 47 46 44 44 42 41 39 36 33 28 37 60 73 80 86 88 92 96 99 97 94 92 89 85 81 82 87 92 95 97 98 98 99 98 96 93 93
88 90 88 90 89 85 85 83 80 77 73 73 72 67 58 55 62 54 37 38 39 33 35 42 50 55 56 54 53 59 64 63 60 54 49 51 55 56 56 48 41 46 50 51 47 41 44 51 56 58 64 72 69 59 52 48 48 48 48 48 48 47 46 45 44 43 41 36 34 30 28 42 63 78 84 85 89 95 96 94 92 90 88 85 81 79 80 82 86 88 91 95 97 97 95 93 93
86 86 84 81 77 76 75 66 58 59 61 65 68 65 59 58 64 56 38 37 38 36 44 54 60 60 59 56 56 59 55 51 49 49 50 53 58 60 56 44 35 38 40 45 51 48 45 47 52 55 56 64 66 58 52 49 50 50 50 50 49 49 48 47 45 43 42 39 34 32 28 29 50 76 85 84 89 92 93 94 91 88 90 88 83 80 80 79 82 86 89 93 95 97 94 87 88
80 82 80 74 65 61 56 49 45 49 53 55 60 61 58 58 59 56 50 44 41 42 46 50 52 53 53 49 52 54 47 46 47 49 55 57 58 57 55 47 34 27 28 35 44 50 52 49 48 52 54 57 60 58 53 51 51 51 51 51 51 50 49 48 47 45 43 41 37 33 30 26 43 71 79 81 91 92 90 95 92 89 91 90 88 86 86 83 83 88 91 93 96 100 95 82 82
62 60 64 66 64 58 51 51 52 53 54 50 52 54 50 50 51 53 52 45 38 39 42 44 44 44 46 46 48 48 43 45 49 50 54 54 53 51 51 48 34 23 23 25 30 37 45 50 51 51 53 54 56 59 57 54 52 52 52 52 52 51 51 49 47 47 44 42 40 36 34 32 42 65 78 83 91 91 91 96 94 91 90 90 92 93 93 90 87 91 93 94 97 100 98 88 84
49 51 63 68 65 60 53 53 52 49 49 46 48 51 50 49 51 52 49 44 40 36 37 42 43 44 49 48 45 44 44 48 50 50 49 47 49 49 46 39 31 28 28 28 29 32 37 47 54 54 54 54 53 56 59 58 54 53 53 53 54 53 52 51 48 47 45 43 42 39 39 38 39 54 67 74 82 85 86 91 91 92 93 93 93 92 93 93 92 94 94 96 98 99 99 94 90
58 63 69 66 60 57 50 46 42 40 42 44 48 52 53 50 50 50 45 43 46 44 42 42 45 48 49 46 44 45 49 52 53 50 44 41 43 42 37 30 26 27 29 31 33 34 36 43 53 57 57 56 55 54 56 59 58 54 54 54 54 54 53 53 50 49 46 45 44 42 41 39 42 55 64 67 75 79 79 83 88 94 94 92 94 92 91 91 93 97 97 98 100 99 100 99 95
65 64 62 56 53 49 42 37 36 37 40 43 45 47 48 46 46 48 45 44 47 48 49 48 49 50 49 49 49 50 52 54 57 58 54 52 53 49 43 35 32 31 31 33 36 39 41 42 47 54 57 57 57 56 54 56 59 58 56 55 55 55 55 54 53 51 48 47 46 45 44 41 45 61 74 77 79 82 86 87 91 95 85 82 92 96 95 96 96 99 99 99 100 99 99 100 97
57 53 51 48 45 41 38 37 36 38 41 44 45 45 46 46 46 48 47 47 48 48 47 47 48 49 50 50 50 51 52 53 55 58 60 61 63 63 59 49 38 34 37 40 42 45 48 48 48 50 55 58 58 58 57 55 56 59 60 59 57 56 56 56 56 54 50 49 47 47 48 47 46 52 63 69 69 76 87 90 95 98 89 84 91 95 98 99 98 100 100 99 99 98 97 97 96
56 53 48 45 43 41 41 41 41 41 43 47 48 47 47 46 46 46 44 43 47 50 47 45 45 46 47 46 47 49 49 50 52 53 55 56 58 60 58 52 42 34 35 39 43 46 49 53 55 54 53 56 58 58 58 56 55 56 58 60 61 59 58 58 58 57 54 50 50 49 49 52 53 52 56 57 59 72 86 93 99 99 96 96 96 97 100 99 95 96 100 100 98 98 98 98 97
59 54 50 50 48 47 45 44 46 47 49 51 50 49 48 47 47 48 46 45 50 53 51 48 48 47 47 46 47 48 48 51 53 53 52 51 51 51 49 47 43 37 34 34 38 42 46 50 54 56 55 54 58 57 53 53 55 56 56 58 59 62 63 62 61 60 58 54 51 51 52 55 57 57 59 56 59 74 83 92 98 93 93 100 100 100 101 98 94 91 96 101 100 99 100 100 98
51 48 48 49 49 50 48 47 47 48 51 52 52 52 49 49 51 52 50 53 57 57 54 51 50 51 51 50 49 49 51 53 54 54 56 55 49 45 43 42 40 39 38 35 34 36 41 47 50 54 54 53 57 58 50 46 49 52 55 56 57 60 64 66 66 63 62 60 55 52 52 56 61 62 62 60 67 78 79 88 97 94 95 100 100 101 100 101 97 85 86 95 98 99 99 100 98
52 52 50 50 52 53 50 50 49 50 52 53 54 55 54 54 58 59 56 57 59 55 52 50 50 51 52 52 51 51 51 52 54 55 53 50 42 37 36 35 35 35 38 39 37 35 36 41 47 53 55 58 63 59 47 42 43 45 49 53 56 57 61 65 67 64 64 65 61 57 54 57 64 68 66 67 75 82 83 92 100 100 100 100 99 99 95 94 92 83 82 89 91 94 99 100 100
57 56 54 54 55 55 54 53 52 52 52 53 55 57 57 58 60 60 56 54 56 54 52 51 50 50 51 52 52 52 54 53 51 47 42 38 33 31 31 31 34 35 36 38 39 38 38 37 40 47 53 60 63 55 46 45 46 45 43 45 50 54 57 60 61 60 61 64 64 60 58 60 66 70 70 71 78 84 91 98 100 100 99 98 99 97 93 93 92 91 94 94 92 94 97 98 98
58 58 59 60 58 59 60 57 55 54 53 53 55 56 57 57 57 56 51 50 54 56 55 55 54 52 51 51 52 53 51 46 41 38 35 34 33 32 30 31 34 37 38 38 38 38 38 38 38 41 47 51 53 53 54 55 55 54 49 44 45 49 52 55 57 58 57 59 63 63 63 63 66 71 73 76 82 86 94 100 100 100 98 98 101 96 96 100 99 97 99 100 100 100 98 95 92
56 57 59 60 59 60 60 57 56 55 57 57 57 59 57 55 55 56 55 54 54 54 54 55 55 52 49 46 46 46 43 41 41 40 38 37 38 37 35 36 38 39 39 36 34 33 32 34 35 36 39 42 45 52 58 60 61 63 62 57 53 51 51 52 53 55 56 56 60 63 66 67 68 74 77 81 86 87 92 95 95 96 93 92 93 90 93 101 101 98 97 98 98 98 101 99 95
59 58 56 56 57 57 56 54 56 60 63 60 60 65 61 53 51 52 55 57 55 51 49 49 49 48 45 40 39 42 44 48 49 47 44 44 44 44 43 41 40 39 36 33 31 32 31 31 31 31 32 34 37 43 50 57 64 68 68 66 63 59 56 54 53 54 56 57 59 62 66 69 71 74 79 84 88 91 93 89 83 81 78 79 80 86 98 101 98 93 90 93 92 90 93 93 94
61 56 54 55 55 56 57 57 59 65 65 60 60 66 63 56 54 52 52 54 52 50 48 46 47 48 47 44 44 47 51 53 51 48 46 45 45 47 46 44 42 39 37 36 36 36 35 34 33 32 31 31 32 35 40 47 57 66 71 69 66 64 60 58 57 56 57 58 60 62 64 68 70 73 80 85 85 92 97 91 87 79 70 72 75 84 95 95 96 95 89 89 89 86 85 83 89
63 57 57 59 56 58 61 63 65 66 65 64 62 62 62 58 54 53 52 52 50 48 48 48 48 49 50 51 51 53 54 52 49 47 44 45 46 46 45 43 42 42 41 40 41 41 41 40 39 37 35 34 34 36 38 41 47 55 64 68 68 67 63 60 59 57 57 58 61 64 65 67 69 71 81 90 87 91 96 94 98 92 76 76 84 88 86 85 96 101 94 92 90 88 87 86 91
63 59 59 62 62 63 64 66 69 69 69 70 64 59 62 59 50 49 51 52 53 50 48 49 48 48 49 51 53 55 55 52 49 47 45 45 47 45 44 42 41 42 42 42 41 42 43 43 43 42 40 39 38 39 40 40 43 47 52 58 62 64 64 63 61 58 56 55 58 62 65 68 70 71 79 89 89 91 95 95 101 98 83 82 92 95 90 88 96 101 99 99 97 95 95 91 89
58 59 58 59 63 66 68 70 71 72 75 73 65 58 61 59 49 47 48 45 49 50 48 48 49 48 47 48 51 54 54 53 51 49 47 47 48 47 45 44 42 40 40 40 40 39 40 41 43 43 42 42 42 42 42 42 43 46 48 50 53 56 59 60 61 60 58 56 55 57 62 67 70 73 77 83 84 85 91 95 99 100 93 91 97 100 98 95 95 97 100 100 97 98 100 97 92
57 60 59 59 63 65 69 73 72 78 80 71 64 59 61 64 55 49 49 43 42 45 45 47 47 46 45 47 50 52 52 53 53 50 49 49 49 48 47 45 44 42 40 39 39 38 38 38 40 42 42 41 41 41 43 44 45 47 49 50 50 51 54 56 58 60 60 59 58 59 65 71 76 81 83 86 88 88 91 96 99 101 98 94 95 97 97 95 93 92 94 96 97 98 99 100 99
54 56 62 67 66 61 62 64 66 80 81 66 60 58 60 65 57 47 48 45 41 42 44 46 46 43 43 45 48 50 50 52 53 51 50 50 48 47 47 46 45 44 42 40 39 39 39 39 39 39 40 40 40 40 42 45 47 51 53 53 54 54 55 57 59 61 63 63 64 64 68 74 80 84 85 89 95 98 99 100 98 95 91 88 88 89 87 89 91 90 91 96 98 99 99 100 100
56 56 68 76 71 65 66 62 60 71 69 59 57 57 56 56 50 47 48 47 43 42 44 45 45 44 44 45 47 49 51 52 53 53 52 51 50 48 47 47 46 45 44 42 41 41 41 42 42 42 42 42 43 44 46 48 51 55 58 59 59 61 63 65 65 66 66 67 70 70 70 71 73 74 74 77 83 87 88 87 86 84 83 84 84 84 84 84 87 90 92 97 99 99 100 99 99
67 64 70 76 72 74 78 67 61 64 56 52 54 57 58 52 48 50 49 47 46 44 45 46 44 45 47 47 49 51 53 55 55 56 57 55 52 50 48 48 48 47 46 45 45 45 44 44 44 44 44 44 45 47 50 55 60 66 72 74 75 75 76 76 78 79 79 78 79 81 82 83 84 84 82 82 82 83 84 85 87 88 88 90 90 91 93 90 91 94 95 98 100 99 99 99 100
75 71 71 69 64 71 77 66 64 65 56 51 55 59 60 53 50 52 48 49 51 49 47 47 46 46 46 48 51 53 54 56 58 60 60 59 56 52 50 50 50 51 51 51 50 50 49 48 48 47 47 46 46 47 48 50 55 62 68 74 80 85 89 90 90 92 93 94 94 94 95 95 98 99 97 97 97 96 96 97 98 98 96 98 99 99 99 96 97 100 99 100 100 100 100 100 100
72 74 74 71 64 63 68 66 65 67 68 65 62 60 55 48 48 50 49 50 50 49 47 44 44 44 44 47 49 52 54 56 60 62 61 60 57 53 51 52 54 55 56 56 57 58 59 60 61 61 62 61 61 61 61 60 60 60 60 61 64 70 82 92 98 100 98 99 100 100 100 100 100 100 100 100 100 100 101 100 101 101 99 100 100 100 100 100 100 100 100 100 100 100 100 100 101
61 69 72 70 66 61 68 74 67 68 79 74 60 56 51 50 54 51 50 52 48 49 52 49 50 48 45 47 48 51 56 58 61 61 59 57 55 54 53 54 56 57 58 60 62 64 66 68 70 71 73 73 74 75 76 77 77 77 75 73 70 66 68 76 88 98 100 100 100 100 100 100 100 100 100 100 100 100 100 100 100 100 100 100 100 100 100 100 100 100 100 100 99 100 99 98 98
53 61 66 64 64 63 70 81 76 73 82 70 51 49 47 49 56 50 47 51 49 49 51 50 50 48 46 45 46 52 56 58 59 57 56 55 55 56 57 59 61 63 64 65 66 68 69 70 71 73 74 75 77 78 79 81 82 83 83 84 84 82 78 75 77 86 93 97 100 101 100 100 100 100 100 100 100 100 100 100 100 100 100 100 100 100 100 100 100 100 100 100 99 97 96 94 93
56 58 63 66 71 74 76 86 88 83 84 71 53 49 46 43 46 44 42 45 46 46 45 46 46 46 47 47 48 54 56 56 55 55 55 57 59 63 65 68 69 69 69 69 70 70 70 71 71 72 73 73 75 76 77 79 80 81 83 83 85 86 87 86 83 83 85 87 92 96 98 99 100 100 101 100 100 100 100 100 100 100 100 100 100 100 100 100 99 99 98 97 96 95 94 93 92
65 66 68 68 74 77 74 77 80 82 85 79 67 58 49 42 41 40 40 40 43 46 45 45 45 42 44 47 51 55 57 56 55 55 59 63 67 70 72 73 73 72 73 73 74 75 74 74 74 74 74 74 74 74 73 73 74 75 77 79 82 84 85 88 88 88 87 85 85 87 90 93 94 96 98 99 100 100 101 100 100 101 100 101 101 100 99 98 97 96 95 93 93 91 90 89 88
71 81 81 73 71 73 73 71 66 73 84 84 81 74 54 43 44 42 40 41 44 47 47 45 44 41 41 46 54 58 59 59 59 61 67 70 73 74 74 76 77 78 81 82 83 84 82 82 81 79 78 77 75 73 71 70 69 70 71 72 76 79 81 84 85 88 89 89 88 87 87 88 88 90 91 93 94 95 96 97 97 98 98 98 98 98 97 96 95 94 93 91 89 88 88 87 87
65 74 78 76 73 71 76 79 68 69 79 77 80 80 59 47 50 46 43 46 46 47 47 47 46 45 46 52 58 60 60 61 64 69 74 77 78 79 78 80 81 84 89 92 94 94 92 90 88 84 81 80 78 75 73 73 71 70 70 70 72 73 75 77 79 81 83 85 87 88 89 89 89 90 90 90 91 91 92 94 94 95 95 95 96 97 97 97 97 97 96 94 92 92 94 94 94
Wind_Speed
9 9 9 9 10 10 8 9 9 11 15 19 20 19 19 17 18 19 19 18 16 16 14 17 19 19 21 20 19 19 20 21 21 20 20 19 17 16 17 18 20 21 22 22 20 23 26 31 35 33 31 29 28 25 21 19 19 19 19 20 20 20 19 18 18 17 17 17 17 18 18 17 16 15 14 14 14 14 14 14 14 14 13 13 13 13 12 12 12 11 10 9 9 9 9 9 8
11 10 9 9 10 8 4 7 9 10 15 19 20 19 19 16 18 19 20 19 14 15 20 22 22 23 24 22 22 22 23 23 23 23 26 27 23 19 16 16 18 20 23 22 18 19 22 25 30 33 32 30 28 27 24 21 20 20 20 20 20 20 19 19 19 18 18 18 18 19 18 18 17 16 15 15 15 14 14 15 15 15 14 14 14 14 13 13 13 12 11 10 9 9 9 9 9
12 10 10 9 8 7 6 8 12 12 16 19 18 16 16 17 18 19 20 22 17 15 19 21 20 21 20 18 19 18 18 16 16 16 19 24 26 27 23 21 22 23 26 26 21 19 20 21 24 27 28 27 27 27 26 24 22 21 21 21 21 20 20 20 19 19 19 19 19 19 19 19 18 18 17 17 16 15 15 15 15 16 16 16 15 15 15 14 14 14 12 11 10 9 9 9 9
11 10 10 6 4 7 10 13 15 14 17 18 15 12 13 16 17 18 21 23 23 20 18 19 16 17 16 12 12 13 12 9 12 16 15 18 21 24 25 26 27 26 28 27 22 19 19 19 21 22 23 25 26 27 26 25 23 22 23 22 21 21 20 20 19 19 19 19 19 19 20 20 19 19 18 18 17 17 17 16 16 17 17 17 16 16 16 15 15 15 14 12 10 10 10 10 9
10 9 9 6 6 9 10 13 16 18 20 16 14 11 12 16 16 16 19 21 23 22 19 18 14 14 14 11 13 13 13 11 15 19 19 20 19 19 19 23 25 24 26 25 20 17 17 17 20 20 22 24 25 26 26 25 24 24 23 22 21 20 20 20 19 19 19 20 20 20 20 20 20 20 20 19 19 18 18 17 18 18 18 18 17 17 17 16 15 16 15 13 12 11 11 11 10
8 7 8 8 10 13 13 14 16 21 21 16 15 14 14 17 17 17 17 17 20 22 20 20 15 13 11 10 11 12 14 15 16 17 18 20 19 19 18 20 21 22 24 24 21 18 17 15 18 18 19 22 25 25 25 25 25 24 23 22 21 20 20 20 20 20 20 20 20 21 20 21 21 21 20 20 20 19 19 19 19 19 19 19 18 18 18 17 16 16 14 13 14 13 12 12 12
8 5 6 8 10 13 15 18 19 20 18 16 17 16 18 19 17 17 16 15 18 19 19 19 17 15 12 10 7 10 15 16 16 18 18 18 18 18 19 20 21 22 23 25 22 19 19 17 17 17 16 18 22 24 24 25 24 23 22 21 20 20 20 20 20 20 20 21 21 20 20 21 21 21 21 21 21 21 21 20 20 20 20 20 19 19 21 20 18 17 15 16 16 15 14 13 13
9 4 7 8 8 12 15 20 20 20 18 16 17 15 18 19 15 12 12 14 14 13 12 12 14 15 15 12 9 12 18 18 18 19 19 18 16 17 18 20 21 22 24 24 23 21 22 20 19 18 17 16 18 21 22 22 22 22 22 21 21 21 21 22 21 22 22 21 21 21 21 21 21 21 21 22 22 22 22 22 21 20 20 22 21 22 24 22 20 20 19 18 17 16 15 15 14
8 7 11 9 9 15 17 19 19 19 20 18 17 16 17 17 16 14 12 13 13 13 9 8 13 13 13 15 14 15 18 19 20 20 20 19 17 17 17 19 21 23 24 25 23 23 24 24 22 21 20 19 18 19 19 19 19 20 20 20 21 21 22 23 23 23 22 22 21 21 21 21 21 22 21 22 24 24 24 23 22 21 22 23 23 24 25 23 20 21 21 20 19 18 17 16 16
7 8 11 10 11 16 19 21 20 18 19 17 17 18 17 15 15 15 15 15 13 15 14 12 15 13 13 16 16 17 19 20 23 22 21 20 19 18 18 18 20 22 23 25 24 24 25 26 26 25 23 22 21 20 20 19 19 19 19 20 20 20 21 21 22 22 22 21 22 22 22 21 22 22 22 23 24 24 24 25 23 22 23 23 23 24 25 24 22 22 23 22 21 20 18 18 17
6 8 11 12 14 17 18 19 20 19 17 16 17 16 15 15 15 14 16 16 13 15 16 17 18 15 16 16 15 16 19 22 23 23 23 21 20 19 19 19 20 21 22 23 24 25 26 27 28 27 25 23 21 21 20 19 19 19 19 19 20 20 20 20 20 20 20 20 21 21 21 21 21 22 22 23 24 25 25 25 25 24 24 24 25 28 28 26 25 26 25 24 22 21 20 19 19
8 9 11 14 16 17 18 18 19 19 17 17 16 15 15 16 16 16 17 17 15 17 16 18 17 14 15 14 14 17 18 20 20 21 22 23 22 21 21 20 20 21 22 21 21 22 22 25 27 26 25 22 21 21 21 20 19 20 20 20 20 21 22 22 23 23 23 23 22 22 22 22 22 22 21 23 24 24 25 26 25 25 25 27 28 29 27 25 26 27 26 25 23 22 22 21 20
10 10 12 16 16 17 19 20 20 19 19 18 14 15 17 16 14 15 16 17 18 19 17 18 15 15 18 14 14 18 19 19 20 21 21 21 21 21 22 20 20 21 22 21 19 19 18 22 23 24 25 22 22 23 22 22 21 22 22 21 21 22 22 24 27 28 29 29 28 26 25 24 23 22 22 23 23 24 25 26 26 26 27 28 28 27 27 27 28 28 27 26 24 24 24 22 22
12 10 13 18 18 17 19 20 19 19 20 17 14 15 19 19 17 17 16 17 18 16 17 16 13 15 18 13 13 19 23 23 23 23 21 20 19 19 20 20 20 21 23 22 20 19 18 21 21 21 24 23 23 24 24 23 22 23 23 22 23 22 22 24 27 29 31 32 31 29 27 26 25 24 23 24 24 24 25 27 28 27 29 30 29 28 29 29 29 28 26 26 25 26 25 24 24
15 12 14 19 20 18 17 18 16 18 20 17 16 17 19 20 20 23 21 19 18 15 18 19 16 17 17 14 13 18 22 19 18 20 19 19 18 18 18 18 19 20 21 20 19 20 19 20 20 21 22 23 24 24 26 26 24 24 23 23 23 23 23 23 24 26 28 30 31 31 29 28 27 25 25 26 26 26 26 27 28 27 30 31 30 29 31 31 31 30 26 26 27 27 26 26 25
15 15 16 19 20 19 18 16 15 19 21 16 18 20 20 19 20 25 20 17 19 16 17 18 17 19 19 17 16 21 22 16 15 19 20 20 20 19 19 18 19 19 20 20 18 19 19 19 19 20 21 22 23 24 26 26 26 24 22 23 23 23 23 22 22 23 24 25 27 28 28 28 27 27 28 27 27 26 26 26 27 28 30 32 31 31 32 32 33 32 27 27 28 28 28 27 25
17 18 20 23 21 20 19 17 18 21 19 16 18 20 19 18 19 20 15 16 23 21 21 19 18 19 19 19 21 25 25 22 22 24 25 24 23 21 21 20 20 20 21 21 20 19 20 21 19 18 20 22 23 25 26 26 27 24 21 22 23 24 24 24 24 24 25 25 25 26 27 28 29 30 30 29 29 28 27 26 25 28 31 33 32 32 32 32 35 34 30 30 30 29 28 27 26
19 21 23 25 22 21 21 20 20 21 20 19 19 18 19 19 17 16 14 19 24 24 24 22 21 20 20 22 24 24 23 25 28 28 28 27 24 23 23 22 22 22 22 22 22 21 23 24 24 22 21 22 22 25 27 28 27 23 22 24 25 26 26 27 27 28 28 28 29 30 31 32 32 32 31 30 30 29 28 27 26 28 31 33 33 32 31 33 36 34 33 32 30 29 28 27 26
21 23 25 25 22 22 22 20 21 21 23 23 21 20 21 23 20 18 18 21 23 23 22 19 19 19 19 22 24 24 24 24 27 27 27 27 25 24 25 25 24 25 24 24 22 22 24 25 26 27 27 26 25 26 26 27 26 23 24 24 25 26 26 27 27 28 28 29 30 32 33 34 33 32 32 30 29 29 29 28 28 29 31 32 32 33 34 36 35 31 30 30 29 30 29 27 26
21 23 28 29 26 26 23 22 25 25 24 25 25 23 23 26 24 21 24 24 24 26 26 22 22 21 21 21 21 25 25 26 28 28 28 26 24 25 26 27 26 26 25 26 25 23 22 23 24 26 27 28 27 27 27 27 24 22 22 22 22 22 23 24 24 25 26 28 28 29 32 33 32 32 32 30 29 29 29 28 28 29 31 32 33 35 34 35 36 31 28 29 30 30 29 28 27
21 22 27 28 25 25 23 23 28 27 25 27 29 25 24 28 27 23 24 27 26 25 25 23 23 22 22 20 21 26 28 29 30 31 29 26 26 28 28 28 28 28 27 26 28 26 23 22 23 23 23 24 25 26 26 25 22 20 20 20 19 19 20 21 22 23 24 25 26 27 30 33 34 32 31 31 29 28 27 27 28 29 30 32 35 36 32 28 30 28 27 27 28 29 28 28 28
23 25 27 24 21 22 22 24 29 29 27 28 26 22 24 25 26 24 22 27 28 25 25 24 23 23 22 21 22 25 26 28 30 31 30 30 32 31 29 29 28 29 30 29 28 29 27 24 23 23 23 23 24 25 25 24 23 21 20 19 19 19 20 21 21 22 23 24 24 25 28 33 34 32 32 32 30 27 25 26 27 29 30 33 36 36 33 29 27 26 26 26 26 27 28 28 27
25 27 28 27 25 25 26 28 31 31 31 31 25 23 26 24 24 24 23 28 28 26 28 27 26 26 25 25 26 27 28 29 29 31 33 35 37 34 30 29 29 29 31 31 29 29 31 30 27 24 23 23 23 24 25 26 25 24 23 21 20 20 21 22 22 22 23 23 24 25 28 33 35 35 35 33 30 28 26 25 26 28 31 33 35 35 35 34 32 30 29 29 29 29 29 29 29
26 29 30 31 32 33 33 35 36 35 36 36 32 29 30 29 27 26 27 30 28 30 33 31 31 33 32 33 33 33 34 35 35 36 34 34 35 36 35 32 31 31 31 31 30 29 31 33 33 31 29 27 25 24 26 28 28 28 27 24 22 22 23 24 24 23 24 24 26 26 28 31 33 35 35 31 29 28 26 26 26 28 30 32 35 37 37 37 37 36 35 35 35 34 34 34 34
26 27 28 29 32 33 33 35 37 38 39 39 39 38 37 37 36 36 38 38 36 37 39 38 38 39 39 39 38 37 38 38 38 37 33 32 33 33 34 34 34 33 34 32 30 29 29 30 34 37 38 34 31 29 28 29 30 31 30 28 26 25 25 25 25 25 25 25 27 28 28 28 30 33 34 32 28 26 25 26 28 30 31 33 35 36 37 38 39 39 39 38 37 37 36 36 34
23 20 22 24 26 29 29 32 37 39 43 44 46 48 46 44 41 44 50 47 43 43 42 40 38 39 38 37 35 32 32 33 30 30 29 29 31 31 31 33 34 32 34 35 33 31 30 28 30 34 37 36 35 34 33 30 31 32 31 30 29 28 27 27 26 26 25 26 28 30 30 29 30 33 36 36 31 26 26 27 29 31 32 33 33 35 35 36 37 38 38 37 36 35 34 33 33
23 21 25 28 28 32 33 37 41 41 44 42 43 48 49 44 38 45 53 43 36 35 33 30 30 32 29 27 26 24 25 27 26 27 28 28 26 27 30 34 35 32 33 36 36 35 33 31 30 31 32 34 35 37 36 33 33 34 33 31 31 30 29 29 28 27 27 28 29 30 32 32 32 33 36 38 33 28 27 28 30 32 32 33 32 33 34 35 36 37 37 36 35 33 31 31 31
25 25 30 34 35 39 39 42 44 41 41 36 34 40 43 37 31 39 44 30 22 24 23 23 27 28 24 20 20 21 23 25 26 25 24 25 24 26 31 35 34 32 34 36 37 38 37 36 34 33 32 32 36 39 38 36 35 34 33 32 32 31 31 31 29 28 28 29 29 30 32 34 33 33 35 37 36 33 32 31 33 35 34 34 33 33 33 35 35 36 36 36 35 33 31 31 31
26 27 31 35 37 40 37 36 37 34 35 33 28 35 37 31 28 31 29 21 18 21 21 21 23 25 24 22 22 22 21 22 26 27 26 26 27 30 34 36 35 34 36 38 39 39 39 40 39 37 35 34 37 40 40 38 36 35 33 32 32 32 32 32 31 30 30 30 30 30 32 33 33 33 36 39 38 37 37 35 36 38 37 35 34 34 34 35 36 36 36 36 35 33 32 32 32
29 30 32 35 36 35 29 25 26 25 27 25 23 33 36 29 25 25 23 23 23 24 23 22 21 22 26 28 26 22 21 23 26 28 30 31 33 35 38 39 38 37 38 40 42 42 41 41 41 40 39 38 38 39 41 41 38 36 35 34 33 33 33 33 33 32 33 32 31 31 32 33 33 34 37 39 39 39 39 37 36 38 38 36 35 36 36 36 37 36 36 36 35 34 34 33 32
30 29 28 29 32 32 25 20 22 23 23 21 22 33 36 28 25 25 24 25 26 26 27 26 24 23 25 26 23 21 23 26 28 30 34 36 38 39 40 40 39 37 37 38 41 43 43 42 42 42 42 41 41 40 41 42 41 39 38 36 36 35 33 34 34 34 34 33 33 32 33 34 34 36 38 40 41 40 39 37 35 35 35 35 36 38 39 38 37 37 36 35 35 34 34 35 34
22 22 24 23 27 30 24 20 23 24 24 22 22 29 32 27 23 23 21 21 23 23 23 24 24 24 25 25 23 22 23 26 28 31 36 39 40 40 39 39 36 34 35 37 39 41 42 43 42 42 42 43 43 43 42 43 43 42 40 39 39 38 36 35 36 36 36 35 34 34 35 36 36 37 39 39 40 40 39 37 35 34 34 35 36 37 39 37 35 35 34 34 34 34 34 35 36
17 19 24 22 24 28 24 21 20 21 24 24 24 28 32 29 25 24 24 23 22 22 23 24 24 24 23 22 22 21 23 27 27 28 32 34 35 36 37 36 35 33 34 36 38 40 41 42 43 42 42 43 44 44 44 44 45 44 43 42 41 41 39 38 38 37 38 37 36 36 36 37 37 38 39 37 37 38 39 39 38 37 37 38 38 38 38 38 36 34 33 34 34 35 36 37 37
18 18 22 23 23 26 26 23 19 19 22 23 24 28 32 31 27 27 28 27 26 26 27 27 26 25 22 21 23 25 29 32 32 32 33 33 34 36 37 38 37 35 35 37 39 40 41 41 43 43 43 42 43 44 45 46 46 45 45 45 44 44 42 40 39 39 40 39 38 37 38 38 38 39 39 38 39 39 39 42 42 40 39 40 42 42 41 40 37 34 33 34 36 36 36 37 37
17 18 21 25 25 27 28 27 22 22 24 24 26 31 34 33 31 30 30 30 31 30 29 28 27 26 26 28 30 31 32 33 33 35 36 37 38 39 40 40 39 37 37 38 40 41 42 42 43 44 44 44 44 45 47 47 47 46 45 46 46 46 44 42 42 42 42 41 40 39 39 40 39 39 40 40 41 42 42 41 41 41 41 40 41 41 39 39 38 35 35 36 37 38 37 36 36
20 23 25 28 30 30 29 28 25 25 28 30 31 35 37 35 33 31 32 32 32 31 30 28 27 27 29 32 33 33 33 34 35 35 36 37 37 39 40 40 39 38 37 38 40 42 43 43 44 44 45 46 45 46 49 49 48 47 46 46 47 46 45 44 45 44 43 43 42 41 40 41 41 41 41 41 40 42 43 42 43 43 41 38 38 37 36 38 39 37 36 38 39 38 36 35 34
24 25 27 29 31 32 30 29 29 25 28 32 31 35 36 35 34 32 32 32 31 30 29 27 28 31 33 34 35 35 35 35 35 35 36 36 37 38 39 39 39 38 37 36 38 41 43 44 44 44 45 45 45 46 48 50 50 49 48 48 47 46 45 45 46 46 45 45 44 43 42 42 43 43 42 41 41 43 45 45 44 41 39 39 39 40 40 41 43 41 38 38 39 37 35 35 33
24 26 28 29 31 33 32 31 30 25 27 32 31 34 35 33 33 32 30 30 29 29 30 30 31 33 34 33 33 33 33 35 36 37 37 36 36 35 34 36 37 37 37 36 35 37 40 43 44 45 45 45 45 46 48 50 50 49 50 50 49 47 45 45 45 46 46 46 45 45 44 43 43 44 44 43 42 44 45 43 41 39 40 43 44 46 46 45 44 42 39 38 38 36 36 36 35
25 26 27 30 30 30 30 27 25 22 24 29 30 33 34 33 33 31 30 31 32 33 33 34 35 34 32 32 32 34 35 36 37 36 35 35 34 34 33 33 32 33 34 34 34 34 36 39 42 44 45 45 46 48 49 50 50 49 49 49 49 48 46 45 46 46 46 46 46 46 46 44 44 45 46 45 45 45 43 38 39 42 45 45 46 47 44 42 42 40 38 38 38 37 37 37 36
24 24 25 28 26 24 26 25 22 21 25 29 32 35 37 36 36 35 32 29 30 31 31 33 34 34 33 34 35 36 34 33 33 34 34 35 35 34 33 32 31 30 30 30 31 31 32 34 37 40 43 46 47 48 49 50 49 48 47 47 47 47 47 47 48 48 47 47 47 47 46 46 45 45 47 46 46 46 45 43 45 48 48 47 47 46 42 40 42 40 38 39 40 40 40 40 39
26 25 26 28 26 24 27 28 25 26 28 30 32 35 37 34 30 30 28 25 25 25 25 27 30 31 31 31 31 30 29 29 31 33 34 34 34 32 32 31 31 30 30 30 30 30 31 31 33 36 39 42 45 47 48 49 48 46 46 45 44 43 44 47 48 48 49 48 48 47 47 46 45 46 47 47 46 46 48 49 51 52 52 52 50 48 44 42 42 41 40 40 40 41 42 42 42
27 26 25 26 26 26 26 25 23 25 25 25 23 21 23 24 22 21 22 22 22 22 23 26 28 29 27 26 27 27 30 32 32 31 31 31 32 32 32 32 31 31 30 30 29 28 28 29 31 33 34 36 40 43 46 48 48 45 45 43 41 39 40 42 44 46 47 49 49 48 48 47 46 47 48 49 49 47 49 52 52 51 52 52 51 49 46 45 44 43 41 40 41 42 43 43 43
27 25 22 22 23 24 23 21 20 21 22 23 21 17 18 22 26 24 21 23 25 26 27 29 28 26 25 25 28 31 32 30 26 23 23 25 28 28 28 28 27 26 26 26 26 25 25 26 28 30 31 32 34 38 42 46 47 46 45 44 41 39 38 38 38 40 42 45 48 49 49 48 48 48 49 51 51 49 49 51 50 49 48 47 48 49 48 47 44 42 42 42 43 44 45 45 45
27 22 18 21 23 23 21 19 21 23 27 31 28 25 23 26 33 31 24 26 29 29 30 30 29 26 25 27 29 30 28 22 17 16 17 18 19 19 20 20 21 21 22 23 23 23 23 23 24 27 29 30 31 33 36 40 42 43 44 44 43 41 40 38 37 38 38 40 44 48 50 50 50 50 50 50 51 50 48 46 45 45 45 44 45 47 48 46 44 43 44 44 46 47 47 47 47
25 21 19 22 23 24 24 22 25 25 25 31 30 23 18 23 33 30 23 26 29 31 33 31 28 26 24 27 28 27 23 16 14 15 15 15 14 15 15 16 17 19 20 21 22 22 21 21 20 22 24 26 28 29 32 34 36 38 40 42 42 41 41 41 40 40 40 39 40 43 47 49 50 51 51 51 51 52 50 46 44 45 45 45 46 47 47 47 47 46 46 46 47 47 48 49 49
23 22 24 25 24 26 25 24 28 25 20 27 29 19 12 19 30 27 20 25 29 31 32 28 25 23 22 25 26 24 20 17 16 17 16 17 17 17 17 17 17 17 19 20 21 21 21 21 20 20 20 21 23 25 27 30 31 32 34 36 38 39 40 40 41 42 42 41 41 41 44 48 50 51 52 54 54 55 54 51 50 49 49 48 48 48 49 49 49 48 48 48 48 48 49 49 50
25 25 26 26 26 27 26 25 24 18 15 25 28 22 16 15 23 23 20 24 27 27 26 23 22 20 20 23 24 21 19 18 19 16 15 16 17 18 19 19 19 18 18 19 20 21 21 22 21 21 21 20 21 22 23 25 27 28 29 31 32 34 35 36 38 39 39 40 41 41 42 45 48 50 52 54 55 56 56 55 53 51 49 49 47 47 48 48 48 49 50 51 51 50 49 49 49
28 28 26 22 19 19 20 23 21 12 12 21 21 21 22 18 18 19 18 20 22 22 23 19 17 18 20 22 21 19 20 21 19 14 14 15 15 17 18 18 19 18 18 18 19 20 21 21 21 21 21 21 21 20 21 22 24 25 26 27 29 30 31 32 34 36 37 38 38 39 40 41 43 46 49 52 53 53 52 51 49 46 44 45 46 47 48 49 49 50 51 52 52 52 51 51 50
27 25 21 13 7 9 11 11 11 10 13 22 22 19 21 21 21 20 16 16 17 19 20 19 18 20 22 22 19 20 23 22 18 14 16 17 16 16 17 18 19 19 18 18 18 18 19 19 19 19 20 19 19 19 19 20 21 22 23 24 25 26 28 29 31 33 35 37 39 39 40 41 42 43 45 47 48 48 48 48 49 47 46 48 50 51 52 53 53 53 53 53 54 53 53 53 51
23 23 20 13 5 5 7 6 6 9 14 21 23 18 15 17 21 21 20 19 19 20 21 22 24 24 24 24 24 26 25 21 17 17 18 17 17 17 17 18 18 17 17 16 15 15 14 15 15 15 16 16 17 17 17 18 19 20 20 21 22 23 25 26 28 30 33 36 38 40 41 42 43 44 45 46 47 48 50 51 51 51 51 51 51 52 52 52 51 51 51 51 51 51 51 50 49
18 18 18 18 15 9 6 5 4 5 9 13 13 9 5 8 13 16 18 19 20 21 22 24 25 24 25 26 27 25 22 20 19 20 19 17 16 16 16 15 15 15 14 13 12 11 11 11 11 11 11 12 12 13 14 14 15 16 17 19 20 21 22 22 23 25 28 31 34 37 39 41 42 44 45 47 48 48 49 49 48 48 48 48 47 47 47 47 46 46 46 46 45 45 45 44 44
16 17 20 22 23 18 13 13 12 10 10 12 14 13 12 15 18 20 18 18 19 19 21 22 21 22 24 25 24 23 22 23 22 21 18 17 16 15 14 13 12 13 12 11 11 10 10 10 10 10 10 10 11 11 12 12 13 14 15 16 17 18 19 19 20 20 22 25 28 31 34 36 38 41 43 45 46 46 47 47 46 45 45 45 45 45 45 46 45 44 44 43 43 42 42 42 43
11 15 22 24 24 22 17 15 16 14 10 12 16 18 21 22 23 26 26 25 25 24 24 25 24 24 25 26 26 26 25 25 22 19 16 15 14 13 13 12 11 12 12 12 11 11 12 12 12 13 13 13 14 14 15 15 15 16 16 17 17 17 17 18 18 19 20 22 25 28 30 32 34 36 38 40 42 43 44 44 44 43 43 43 42 42 41 40 40 39 39 39 39 40 40 41 42
17 16 17 18 19 21 18 10 7 8 8 11 15 17 19 16 14 20 25 23 23 23 22 22 23 23 23 24 25 25 24 22 19 16 15 14 14 12 12 12 11 12 13 13 14 14 14 15 15 16 16 17 17 17 18 18 19 19 19 20 20 19 19 19 20 21 21 22 24 26 28 29 31 33 34 35 36 37 37 37 37 37 37 37 36 36 35 35 35 36 36 37 38 39 40 41 42
27 26 23 17 12 12 15 9 4 6 7 8 14 19 21 20 16 18 21 19 18 19 18 17 18 20 21 22 23 23 21 18 16 15 15 14 14 13 12 13 13 14 15 16 16 17 17 18 18 18 19 19 19 20 20 20 21 21 22 22 22 22 22 22 23 23 24 25 26 27 28 29 30 31 32 32 33 33 33 34 34 34 34 34 34 35 35 36 36 37 38 39 39 41 42 43 43
24 27 29 27 21 16 16 14 8 6 6 6 10 12 14 17 18 18 18 16 15 15 16 15 17 18 19 20 22 21 19 17 16 15 16 15 14 14 14 15 16 16 17 17 18 18 19 19 20 20 20 21 21 21 22 22 22 23 23 24 24 24 25 25 25 26 26 27 28 29 30 31 32 32 33 33 34 34 34 35 35 36 36 36 37 37 38 39 39 40 41 42 42 43 44 44 45
20 24 27 29 29 24 21 23 22 14 7 5 5 7 11 15 16 16 17 15 12 13 13 15 16 17 18 19 20 19 17 16 16 16 16 16 15 15 16 17 18 18 18 19 19 19 20 20 20 21 21 21 21 22 22 23 24 24 24 25 25 25 26 26 27 27 28 29 29 31 32 33 34 34 35 35 36 36 36 36 37 37 37 38 38 38 39 39 40 40 41 41 41 41 41 42 42
21 25 26 26 28 25 15 15 22 22 16 11 8 8 15 19 16 15 17 15 12 13 13 15 17 18 18 18 17 17 17 17 17 17 17 16 15 16 17 18 19 19 19 20 20 20 20 20 21 21 21 21 21 21 22 23 24 25 25 26 26 26 26 27 27 28 28 29 30 31 32 33 33 34 35 36 36 37 37 37 37 37 38 38 38 38 38 38 38 39 39 39 38 37 37 37 37
Wind_Direction
264 263 259 257 258 256 257 241 228 232 237 245 249 250 252 250 250 251 252 252 242 228 230 239 235 235 230 226 230 232 239 246 249 249 249 250 251 250 250 252 256 260 263 269 271 270 261 250 249 249 251 251 252 252 244 238 234 233 233 233 233 234 235 236 238 237 237 237 239 241 244 245 247 248 249 251 253 256 257 257 256 253 250 248 248 250 253 256 257 260 263 265 271 275 277 281 283
262 262 259 258 260 256 263 261 242 236 241 247 252 251 253 257 252 249 250 244 232 225 226 234 237 242 242 239 245 252 254 253 254 253 255 258 256 251 251 255 255 260 264 270 275 271 265 255 251 250 251 250 248 246 243 240 238 236 234 233 233 234 237 238 237 235 234 235 238 241 244 245 247 249 250 251 253 256 257 257 255 255 254 253 253 253 252 251 253 256 256 258 263 267 271 275 279
262 261 261 257 260 245 193 222 238 236 242 249 255 256 258 258 249 241 243 240 230 224 229 240 244 250 254 256 261 268 272 270 259 254 262 262 257 250 246 253 255 262 267 270 273 267 262 256 248 245 243 241 239 238 237 238 239 237 233 232 233 234 238 239 238 236 233 233 236 240 244 246 247 249 250 252 254 255 255 255 254 255 256 257 258 257 253 250 253 255 252 250 252 256 261 266 272
265 265 264 250 245 241 192 209 233 240 247 252 262 266 262 254 248 243 246 246 235 228 237 248 248 252 259 265 263 257 260 261 241 233 242 255 260 254 245 250 253 259 267 268 266 257 253 248 240 233 229 228 230 231 233 235 235 233 231 231 233 234 236 238 239 238 236 235 235 239 243 247 249 250 250 252 253 253 254 254 253 254 256 257 258 254 250 250 250 252 253 248 248 250 253 258 262
269 270 265 242 214 233 220 229 236 238 244 251 264 271 268 258 258 262 262 251 236 237 245 250 248 249 254 266 272 264 252 238 242 241 236 245 262 264 253 252 253 256 264 266 261 246 238 234 229 225 223 226 226 228 230 230 228 227 228 228 230 232 234 236 238 239 239 238 238 239 242 246 249 251 252 253 252 253 254 254 253 253 254 256 256 248 244 245 242 248 256 252 251 253 251 253 256
268 266 258 243 217 220 222 238 239 239 244 250 262 266 276 276 272 275 275 257 243 250 257 260 258 253 247 249 269 273 258 241 245 257 251 252 263 268 265 259 256 257 261 264 261 239 225 220 217 217 222 229 228 226 225 224 221 221 223 223 225 229 233 236 237 238 239 240 241 242 244 246 248 251 253 254 254 255 253 254 254 253 253 255 255 242 235 239 240 248 256 252 254 256 255 256 257
256 253 266 260 225 225 228 238 244 247 252 255 263 270 277 276 272 278 279 266 256 261 270 274 267 260 252 223 238 264 260 257 252 259 263 262 265 267 266 262 259 258 258 261 261 242 225 219 215 213 216 226 229 225 221 220 216 215 217 218 222 228 233 235 235 236 237 238 241 244 247 249 251 253 255 256 256 256 254 254 254 255 256 254 250 241 236 239 246 252 250 249 255 258 258 260 261
258 226 243 264 233 242 246 246 249 251 255 258 263 265 270 271 270 276 272 266 264 268 273 286 282 268 260 232 231 265 262 265 264 262 266 263 262 265 263 259 258 256 257 258 258 248 232 226 225 219 212 215 222 220 216 216 212 211 214 217 222 228 232 233 232 233 235 238 242 246 250 253 255 256 258 259 257 256 256 256 256 258 254 249 246 240 237 242 251 250 244 249 257 257 257 259 262
251 197 208 240 235 245 251 252 256 256 258 261 262 256 264 277 281 278 270 265 263 269 262 267 275 259 256 246 234 251 258 259 263 267 269 266 260 260 260 258 256 254 256 258 258 253 241 234 233 226 214 209 214 217 219 220 217 215 216 220 224 229 233 233 233 234 237 241 245 247 250 253 255 257 258 258 258 258 257 257 256 256 250 246 244 236 236 246 249 241 241 252 258 257 256 258 260
231 203 204 232 243 248 252 253 257 259 261 263 264 257 258 268 276 279 276 270 255 256 254 247 261 257 258 264 252 249 257 263 266 270 270 267 262 258 259 259 258 255 254 256 257 254 249 242 238 232 219 212 214 216 220 225 227 227 226 228 229 231 234 236 237 239 243 246 248 249 251 252 255 257 257 257 258 258 258 257 255 253 248 242 236 232 238 247 243 237 243 251 255 255 254 256 257
220 217 210 228 243 247 252 255 259 260 263 266 267 264 257 257 265 272 273 272 258 249 249 247 255 263 263 268 273 266 267 271 271 272 269 265 264 260 257 257 258 258 256 256 257 255 253 247 241 235 224 217 218 215 215 220 227 230 232 234 235 234 234 236 239 243 246 248 249 250 251 253 255 258 260 260 259 258 257 256 255 251 245 239 237 238 243 247 243 240 244 248 253 253 252 253 255
220 222 221 232 241 245 252 258 263 265 267 266 266 266 258 258 265 266 262 262 258 249 241 242 249 261 262 257 261 262 266 272 272 270 269 265 263 262 261 258 257 258 258 259 260 258 253 246 242 238 229 221 222 223 222 224 228 235 238 239 239 239 239 241 243 244 246 246 247 248 249 250 254 257 260 262 261 259 256 255 253 246 241 237 237 240 240 241 240 237 239 248 254 253 251 252 252
226 221 230 241 243 246 255 260 266 269 270 268 266 271 262 253 255 253 255 258 258 255 248 248 255 259 259 259 261 261 261 262 264 266 269 269 265 263 264 263 259 256 256 257 261 259 245 238 239 240 236 228 225 228 231 233 237 245 248 245 243 244 245 246 246 247 248 247 246 246 248 249 252 256 259 260 260 259 256 254 249 242 239 232 232 239 240 239 237 232 237 249 253 251 252 252 253
229 225 236 248 250 249 254 259 265 269 268 265 262 270 268 254 246 246 248 256 258 260 260 254 250 253 252 251 257 260 259 258 259 264 267 268 266 264 266 269 263 257 256 255 257 256 242 233 233 236 237 232 227 226 229 234 242 248 248 245 243 242 243 244 244 245 247 247 246 245 246 249 251 252 255 257 258 258 255 250 245 241 238 232 234 241 241 237 231 227 234 244 248 249 251 253 255
226 227 238 250 253 252 252 252 258 266 264 261 257 257 262 258 255 256 253 253 254 255 261 256 242 244 242 237 253 256 252 253 255 261 264 265 269 270 269 271 267 259 256 253 251 251 242 231 228 231 235 234 229 225 226 228 233 240 241 240 239 239 240 241 242 242 243 244 244 243 244 247 249 250 251 253 255 255 252 247 242 240 239 237 240 241 238 236 235 234 236 239 243 247 250 252 255
231 229 235 246 249 250 250 250 253 260 260 260 260 257 262 268 265 266 268 266 260 249 253 261 254 252 249 241 254 252 241 241 250 257 262 270 277 274 270 268 266 258 251 246 243 245 242 233 228 230 234 235 232 229 229 227 227 229 231 234 236 239 241 242 243 244 244 244 246 246 247 248 250 251 250 250 251 250 249 245 239 237 240 240 240 239 237 240 244 243 238 237 241 244 247 251 254
237 235 237 244 246 247 247 248 248 253 261 264 265 265 268 273 272 271 274 267 262 257 254 258 256 258 260 249 248 248 246 253 261 263 265 274 279 276 272 266 262 255 247 243 241 241 241 237 233 234 235 236 236 235 234 233 234 233 231 232 235 237 240 243 244 246 247 247 250 251 251 251 252 252 249 247 246 243 241 241 238 235 238 239 239 239 240 243 244 240 236 236 240 242 245 248 253
238 239 241 244 245 249 250 252 256 257 260 259 259 266 267 266 270 273 271 264 266 275 276 273 266 262 266 266 265 265 267 269 267 266 267 273 277 277 274 267 261 255 246 241 241 239 238 239 237 237 238 238 240 240 238 238 239 240 237 236 236 236 239 241 243 246 248 249 250 251 251 251 251 249 246 243 241 238 234 235 235 234 237 240 241 241 243 244 236 228 229 234 238 242 244 246 251
242 244 246 247 247 253 257 259 261 261 264 261 254 257 265 264 263 266 267 267 269 271 272 274 270 265 267 276 284 285 284 281 274 270 267 265 270 276 276 270 265 260 251 241 237 236 236 237 239 241 242 243 245 248 247 244 241 239 237 235 234 237 240 242 244 246 249 252 251 250 250 249 246 242 241 238 234 232 231 232 233 233 237 241 243 243 244 243 236 225 228 236 241 242 243 246 251
249 250 251 254 257 260 260 260 258 257 267 272 259 251 259 258 252 258 263 264 267 265 264 263 263 265 265 267 276 280 281 279 276 274 270 266 271 281 281 274 268 265 260 247 238 235 233 233 234 238 242 244 245 248 249 247 243 238 235 234 234 236 240 243 245 247 251 255 254 251 250 248 243 240 240 235 230 230 231 230 231 233 237 241 243 241 235 233 236 234 237 243 246 245 246 250 255
252 252 255 262 266 265 262 264 266 261 259 266 263 254 259 257 244 249 264 263 260 264 269 269 267 268 265 261 263 269 273 272 271 272 270 270 280 288 285 277 271 266 263 253 243 238 236 233 231 230 234 238 239 241 244 246 244 238 235 236 237 238 241 245 246 249 253 256 259 257 254 248 242 240 236 232 230 230 232 231 231 234 238 240 238 234 230 227 231 235 242 246 247 249 253 257 261
253 252 257 263 263 265 265 260 264 265 260 262 265 257 262 267 252 249 262 261 258 261 265 267 265 262 258 256 258 263 270 273 274 276 276 277 282 286 283 277 272 267 263 258 248 240 239 237 235 233 232 234 238 241 243 246 246 241 239 239 240 242 245 247 248 251 254 257 262 260 258 251 241 237 231 229 231 229 233 234 231 233 236 238 235 233 236 241 241 241 245 248 252 255 258 261 263
258 257 258 259 258 260 262 257 259 265 265 263 264 258 254 258 256 252 251 252 256 258 255 254 253 255 258 260 260 260 263 268 272 277 282 284 283 282 281 276 271 266 262 260 255 244 240 240 241 241 240 239 240 244 246 248 249 248 247 244 244 247 249 251 252 254 255 257 260 259 262 254 240 234 231 228 228 228 232 233 231 234 237 240 241 241 243 247 250 251 252 255 259 261 261 263 267
265 267 265 263 262 261 262 263 264 265 267 266 267 267 263 259 256 254 250 251 259 261 258 258 259 262 267 268 269 269 269 270 272 274 276 276 278 280 281 278 272 266 260 258 259 254 246 243 243 245 246 247 246 245 249 252 253 253 253 252 251 251 252 254 255 256 257 257 259 260 261 253 240 234 230 226 225 230 233 232 234 238 243 247 249 249 249 249 252 255 258 259 262 264 265 267 271
268 274 277 273 269 269 271 270 269 269 270 273 277 279 278 276 273 270 269 269 272 273 274 276 275 275 275 273 272 272 274 276 277 277 275 273 274 277 278 277 274 270 265 258 255 254 252 248 246 245 246 249 250 248 248 251 253 255 255 256 255 255 255 256 257 257 258 258 259 260 258 253 249 244 238 235 237 241 242 241 243 246 249 253 255 255 253 252 253 255 258 260 262 265 266 268 269
269 274 279 276 272 273 274 273 277 281 282 285 287 286 284 285 286 282 278 280 283 281 282 283 281 278 276 276 274 271 272 274 274 275 277 276 274 274 271 270 270 271 270 265 257 252 250 249 248 247 246 246 248 247 245 246 251 254 255 256 256 256 258 258 259 259 260 260 258 258 257 254 252 252 249 247 246 245 245 249 252 253 254 256 257 257 255 254 255 256 257 259 262 263 265 266 266
269 268 266 265 267 270 273 278 283 287 289 289 288 290 291 293 292 284 285 291 295 291 287 282 277 273 273 275 273 267 265 266 268 270 273 270 266 266 264 264 265 264 265 266 263 257 251 247 246 246 246 244 243 243 242 243 248 253 254 254 255 256 257 259 260 260 260 260 258 257 258 256 252 252 252 252 252 250 251 256 259 258 258 258 256 255 254 254 255 256 258 259 260 262 264 264 264
268 268 268 268 271 274 279 285 288 288 287 284 282 287 290 291 283 282 292 305 307 301 290 273 265 267 274 274 262 261 266 270 273 270 264 258 250 249 253 259 262 258 256 259 260 259 255 251 246 243 243 241 240 240 239 240 244 249 252 254 256 256 257 258 259 260 259 259 259 258 257 256 253 252 253 255 257 258 258 260 262 262 260 258 256 256 256 256 256 257 257 257 257 259 262 262 263
267 267 272 278 281 283 287 290 289 288 282 281 280 277 276 276 275 282 296 308 303 297 287 273 266 268 272 265 258 266 273 269 265 258 248 246 242 241 246 253 257 253 248 248 251 253 255 254 251 247 243 241 240 240 239 239 241 246 250 253 255 256 257 258 258 259 259 258 258 257 256 256 253 250 252 255 256 256 259 261 262 262 259 256 254 256 257 258 258 257 256 253 253 255 257 260 262
274 276 278 283 285 286 288 288 288 287 280 281 277 267 267 269 274 281 285 281 276 274 270 266 265 262 257 256 259 266 263 252 247 244 243 246 247 248 249 253 258 258 253 249 249 249 250 252 253 251 248 244 242 243 242 240 240 243 247 250 252 254 255 256 257 258 259 259 257 255 254 253 250 247 250 254 255 256 259 262 261 261 260 256 252 253 255 257 258 256 255 251 250 253 253 256 261
283 286 280 278 280 282 286 285 288 289 282 278 269 266 270 272 275 279 281 279 271 265 262 261 261 255 250 254 257 255 251 248 245 243 246 250 251 252 255 259 263 263 260 257 252 248 247 248 249 250 250 247 245 243 243 242 241 241 245 248 250 251 252 253 254 255 256 257 255 253 252 250 249 248 248 251 255 258 260 259 258 258 260 260 257 256 256 255 254 254 252 249 249 252 254 255 258
287 282 273 271 273 280 289 288 286 286 279 270 263 266 270 273 274 272 277 286 285 278 270 265 262 254 252 255 253 253 256 255 253 251 252 253 253 255 258 262 263 262 260 258 255 251 248 246 246 247 248 248 247 244 242 243 242 241 243 246 249 249 248 248 250 252 253 253 252 251 250 250 250 249 248 249 252 256 258 257 256 257 259 260 261 261 261 258 255 253 251 250 251 252 253 254 253
276 266 266 272 274 282 290 287 284 283 279 271 267 270 271 273 274 269 272 276 280 285 282 277 272 267 267 265 260 256 255 254 253 253 253 255 258 260 262 261 260 258 256 254 254 252 250 248 246 246 246 247 247 245 243 242 242 242 243 244 246 248 246 245 247 249 250 250 250 250 249 250 249 248 249 250 250 252 255 256 257 258 258 258 259 259 259 260 259 256 252 251 253 252 252 252 251
270 266 267 273 278 286 291 288 284 278 281 280 274 275 274 276 277 276 279 277 272 275 279 278 275 276 279 273 265 256 252 253 254 253 255 257 258 260 262 263 262 258 255 252 251 250 250 249 248 246 246 246 247 247 245 243 242 242 243 243 244 246 245 244 245 246 248 249 249 250 249 249 248 248 249 250 250 252 255 258 259 259 257 254 256 257 257 259 260 258 254 253 254 253 253 252 252
272 273 275 280 282 283 284 285 284 277 280 282 280 278 276 277 278 276 280 280 276 275 277 275 271 272 270 263 260 256 254 256 255 255 256 257 258 259 261 264 265 263 258 253 251 250 250 249 249 248 247 247 250 251 248 246 244 243 243 244 244 244 245 244 244 244 246 248 249 250 250 249 249 248 247 247 248 250 251 254 256 256 253 250 251 254 257 260 261 258 253 252 254 254 255 256 255
271 276 278 279 281 280 279 280 281 280 281 280 278 278 277 279 279 275 272 271 273 275 275 274 269 266 262 257 256 256 256 257 256 256 256 259 262 263 264 266 267 266 261 255 252 250 250 250 250 251 251 250 251 253 251 249 247 245 245 245 245 245 245 244 244 244 245 247 249 251 251 250 250 249 248 247 246 247 248 249 249 248 247 248 248 249 254 260 262 260 253 251 254 255 255 257 257
271 276 274 274 276 276 277 278 279 281 282 280 278 278 279 279 277 274 270 269 271 275 276 274 267 260 257 255 255 255 256 258 258 258 259 263 267 267 267 267 266 265 263 260 255 251 250 250 250 251 252 253 253 254 253 251 249 247 246 245 245 245 245 244 244 245 245 246 248 251 252 251 250 249 248 246 243 245 247 247 249 249 248 251 252 251 253 257 261 261 256 253 254 255 255 256 256
267 270 271 273 273 274 276 278 281 282 279 278 279 279 278 278 278 275 274 274 274 275 274 268 261 258 258 258 257 257 257 258 260 262 264 266 268 269 269 268 266 264 263 262 259 255 252 250 250 250 252 254 254 254 253 252 251 249 248 246 245 245 245 244 244 245 246 245 247 249 251 251 249 249 248 246 244 246 248 249 250 253 253 255 256 255 256 258 259 259 257 256 255 255 254 254 254
264 266 269 271 272 277 280 280 282 282 278 279 281 281 280 279 278 275 276 276 273 272 269 263 261 261 262 261 261 260 260 261 263 265 267 268 269 269 268 268 266 264 262 262 261 259 255 252 250 249 250 251 252 252 252 253 253 252 250 248 247 246 246 245 244 245 245 244 245 246 249 249 248 247 247 246 245 246 247 247 248 251 253 255 257 258 259 259 259 257 255 257 258 257 257 256 256
264 265 265 267 271 276 279 281 283 281 278 280 283 284 282 280 279 279 282 280 272 269 267 264 262 261 262 262 262 262 262 263 265 267 268 269 269 267 265 265 264 263 261 261 261 260 258 256 252 250 249 249 250 251 252 253 254 254 254 252 250 249 248 247 246 246 246 245 244 245 246 247 247 246 246 245 244 243 243 243 246 249 250 252 255 257 256 256 258 257 254 255 256 257 259 259 259
263 261 260 264 269 271 275 281 285 284 280 278 282 283 280 279 280 281 283 279 268 264 263 262 258 258 261 259 258 259 260 265 271 271 269 269 268 267 265 263 262 263 263 263 263 261 259 257 255 253 251 251 251 251 253 254 254 255 255 255 254 253 251 249 249 248 247 246 245 244 244 245 245 244 243 244 245 245 244 244 246 248 249 251 253 253 251 252 255 256 253 253 255 255 256 257 258
262 261 259 263 267 269 274 280 285 288 283 279 281 281 278 279 279 276 273 267 261 260 263 261 257 261 263 256 252 256 262 273 278 275 271 270 270 269 268 266 265 265 266 267 265 262 260 257 255 255 254 253 252 252 254 255 255 255 256 255 255 254 253 252 251 251 250 248 246 245 243 243 243 242 241 242 244 245 244 245 246 248 249 250 249 248 248 251 255 256 253 252 253 254 254 255 256
260 262 261 260 261 266 273 277 281 282 279 278 275 272 282 284 277 271 267 264 263 264 266 264 264 266 263 256 256 262 270 279 281 277 275 271 268 267 267 267 267 266 264 263 263 261 258 255 253 253 253 253 252 253 254 255 255 255 256 256 255 254 254 254 253 253 252 250 247 245 243 242 241 241 240 240 241 244 243 241 242 245 247 248 247 246 246 249 253 254 253 251 252 253 255 255 257
256 264 264 260 257 260 270 275 274 274 278 279 270 266 276 277 273 272 267 262 264 265 264 264 268 267 263 261 261 268 276 277 274 278 280 272 264 265 267 265 262 259 258 259 260 260 258 257 255 253 252 252 251 252 253 254 255 255 255 255 254 254 254 254 254 254 253 252 249 246 244 242 241 240 240 239 240 243 244 240 239 240 241 244 246 247 247 246 248 250 251 251 251 252 254 256 258
258 265 262 261 260 260 264 268 269 272 279 277 268 260 265 268 270 274 270 259 255 258 261 263 267 266 266 266 267 274 273 264 274 284 278 266 258 261 269 270 267 262 260 259 260 261 260 258 256 255 254 253 252 251 252 253 254 254 254 254 254 254 254 254 254 254 254 254 251 248 245 243 241 239 239 239 239 241 244 245 244 241 240 242 244 246 246 244 245 248 250 251 252 253 254 257 259
256 261 259 258 261 263 267 269 269 269 267 265 265 257 251 269 270 268 266 258 250 251 257 261 262 263 266 267 272 276 261 253 282 288 270 258 253 257 266 271 275 273 269 266 264 263 263 260 258 256 255 254 254 253 253 254 255 255 255 254 254 254 254 254 254 254 254 253 252 249 247 244 242 240 238 239 240 241 242 245 247 243 240 240 241 244 246 246 246 248 250 252 254 255 257 259 260
250 256 260 263 265 267 270 266 262 263 254 255 261 255 246 267 273 265 260 258 252 251 255 258 259 260 266 269 271 266 247 255 284 282 265 260 255 258 263 266 272 275 274 273 269 266 264 263 261 259 257 256 256 255 255 255 256 257 257 257 256 256 256 256 255 255 255 255 253 250 247 244 243 242 240 239 240 240 240 241 243 242 241 241 243 248 251 251 251 253 254 256 257 258 259 261 263
253 257 262 269 274 270 265 254 243 239 251 256 260 256 246 249 266 267 258 252 251 254 255 253 254 262 271 271 266 252 246 265 278 268 262 265 262 263 264 266 269 269 269 268 268 268 265 264 262 261 259 258 257 256 256 256 256 257 258 258 258 258 258 258 257 256 256 257 257 255 253 250 248 247 245 243 240 240 242 244 248 250 251 252 254 257 258 258 257 257 258 257 258 259 261 262 263
255 254 251 254 272 267 253 241 232 230 252 259 259 255 246 246 259 265 258 250 248 250 248 245 253 266 269 266 260 253 257 269 270 261 266 271 269 267 264 264 264 262 261 260 261 264 264 264 263 262 261 260 259 258 256 256 255 256 258 258 259 260 260 260 259 257 256 255 255 256 257 257 256 255 254 253 251 251 254 257 259 260 260 260 260 260 260 260 259 258 259 259 259 260 261 262 262
250 243 231 221 227 259 248 241 244 241 253 259 253 248 249 250 256 259 256 255 253 249 248 252 260 264 261 259 260 262 265 268 266 268 274 275 271 266 261 259 258 257 258 258 259 262 264 266 266 266 267 265 264 264 262 261 259 258 258 258 259 260 260 260 258 257 256 254 253 253 253 254 255 254 253 254 255 256 257 258 258 257 257 257 257 256 256 257 257 257 258 259 261 262 262 263 263
250 237 222 223 228 237 248 250 254 265 285 280 251 229 226 234 244 252 252 249 248 250 255 258 259 257 257 260 262 264 266 269 273 277 278 275 268 261 256 253 254 257 261 262 263 263 264 266 268 270 272 271 272 272 272 272 271 270 269 266 264 262 262 262 261 259 257 256 254 253 252 252 252 252 251 251 251 253 253 254 254 254 254 254 254 254 256 258 258 258 259 260 261 262 263 264 264
251 233 222 230 236 241 258 269 270 280 298 284 251 240 251 257 258 256 247 241 242 248 252 252 252 255 258 262 264 267 271 275 280 279 275 268 259 252 249 248 250 254 258 261 261 262 263 265 266 269 272 274 276 278 279 281 283 283 283 282 279 274 271 270 269 269 267 264 260 258 257 255 254 253 253 253 253 253 254 256 256 257 257 257 258 259 259 260 260 260 260 260 259 259 260 261 262
242 227 228 237 242 245 256 272 273 270 273 263 251 250 254 257 260 255 247 246 250 254 256 253 253 257 259 262 267 272 275 277 278 272 264 255 248 244 243 243 245 248 251 255 257 259 262 265 268 270 272 274 275 277 279 280 281 282 283 283 283 280 276 272 268 267 268 267 263 261 259 258 256 255 255 255 254 255 256 256 257 257 258 258 258 258 258 259 259 260 260 259 259 258 259 259 259
237 236 242 247 250 250 249 260 275 259 258 262 259 259 254 245 249 253 249 246 248 251 253 254 254 256 259 263 268 272 274 274 269 260 252 245 241 240 240 241 244 248 252 255 258 262 264 267 270 271 272 274 275 276 276 277 277 278 278 278 277 276 273 270 265 261 260 260 260 259 258 258 257 256 255 255 255 255 256 256 257 257 257 258 258 259 259 260 261 262 263 263 263 263 262 262 262
246 247 251 250 255 256 242 234 257 253 251 264 262 262 258 249 250 260 259 253 250 246 243 248 252 254 259 262 266 271 273 269 261 252 246 241 239 239 241 247 252 255 259 261 263 265 267 268 270 271 273 274 275 275 276 276 274 273 273 273 273 272 270 268 265 261 258 256 256 255 256 256 257 257 257 258 258 259 260 260 261 262 262 263 264 264 265 265 266 266 267 267 267 266 266 266 265
255 251 249 248 249 254 250 250 265 263 256 266 265 263 261 256 256 262 266 264 254 244 242 247 251 254 260 262 263 268 269 264 258 249 243 240 242 247 251 255 259 262 264 265 266 266 267 268 269 270 271 272 273 273 273 274 273 271 270 268 267 267 267 266 264 263 260 258 257 256 256 256 257 258 259 260 261 262 262 263 264 264 265 265 266 266 266 266 267 267 267 267 267 267 267 267 267
249 242 242 244 245 248 253 256 254 252 263 282 276 269 268 266 260 258 266 269 257 247 248 249 250 259 267 265 261 262 264 261 256 247 242 243 248 254 259 262 264 265 266 266 268 268 268 269 269 270 272 272 272 271 270 270 269 268 267 266 265 264 263 263 263 262 261 260 260 259 259 260 260 260 261 261 262 263 264 265 265 266 266 266 266 266 266 266 266 267 267 267 267 267 267 267 267
250 246 246 245 240 237 243 255 246 237 240 250 255 270 273 268 263 261 266 270 264 257 254 253 261 272 271 260 257 263 267 265 257 250 249 252 258 264 267 270 270 269 268 267 267 268 270 272 273 274 275 276 275 274 271 270 268 266 265 265 265 264 263 263 262 262 261 261 261 261 260 261 261 261 262 262 263 264 265 266 267 267 267 267 267 267 267 267 267 267 267 268 268 268 268 267 267